(67542) = 2000 SR20

Discovered at Anderson Mesa on 2000-09-22 by LONEOS.

Orbit

Orbit type: Main Belt

Note: WebGL enabled browser required.

epoch2023-09-13.0
epoch JD2460200.5
perihelion date2023-07-26.58801
perihelion JD2460152.08801
argument of perihelion (°)358.73235
ascending node (°)256.49356
inclination (°)5.02244
eccentricity0.2096888
perihelion distance (AU)1.7884237
Tisserand w.r.t. Jupiter3.6
ΔV w.r.t. Earth (km/sec)8.4
semimajor axis (AU)2.2629361
mean anomaly (°)14.01678
mean daily motion (°/day)0.28953120
aphelion distance (AU)2.737
period (years)3.4
P-vector [x]-0.25492597
P-vector [y]-0.88639680
P-vector [z]-0.38641101
Q-vector [x]0.96320639
Q-vector [y]-0.26795844
Q-vector [z]-0.02077791
absolute magnitude15.5
phase slope0.15
uncertainty0
referenceMPEC 2024-A48
observations used1713
oppositions18
arc length (days)8939
first opposition used1999
last opposition used2023
residual rms (arc-secs)0.66
perturbers coarse indicatorM-v
perturbers precise indicator003Ek
first observation date used1999-03-22.0
last observation date used2023-09-11.0
computer nameMPCLINUX
JD of orbit computation2456966.905431
perihelion JD uncertainty (days)5.7630E-05
argument of perihelion uncertainty (°)5.9101E-05
ascending node uncertainty (°)5.7819E-05
inclination uncertainty (°)5.2002E-06
eccentricity uncertainty 4.5672E-08
perihelion distance uncertainty (AU)1.0450E-07
Minimum Orbit Intersection Distances (in AU)
for orbit epoch: 2460200.5, reference: E2024-A48
Mercury1.32271
Venus1.06238
Earth0.77287
Mars0.27323
Jupiter2.31088
Saturn6.32321
Uranus16.1012
Neptune27.1848

Observations

1739 total observations over interval: 1999 03 22.25348 – 2023 09 11.267346
These data are available for download (format description).

Date (UT) J2000 RA J2000 Dec Magn Location Ref
1999 03 22.25348 11 33 35.35 -07 27 16.9 17.2 R 699 – Lowell Observatory-LONEOS MPS 22466
1999 03 22.27395 11 33 34.12 -07 27 07.2   699 – Lowell Observatory-LONEOS MPS 22466
1999 03 22.29431 11 33 32.85 -07 26 58.7   699 – Lowell Observatory-LONEOS MPS 22466
1999 04 11.14197 11 16 53.77 -04 59 09.5 17.3 R 699 – Lowell Observatory-LONEOS MPS 22466
1999 04 11.17252 11 16 52.61 -04 58 56.0   699 – Lowell Observatory-LONEOS MPS 22466
1999 04 11.20309 11 16 51.37 -04 58 42.7   699 – Lowell Observatory-LONEOS MPS 22466
2000 09 22.32580 02 04 08.98 +19 24 25.7 18.6 R 699 – Lowell Observatory-LONEOS MPS 19761
2000 09 22.34594 02 04 08.06 +19 24 21.9   699 – Lowell Observatory-LONEOS MPS 19761
2000 09 22.36611 02 04 07.27 +19 24 18.5   699 – Lowell Observatory-LONEOS MPS 19761
2000 09 22.38622 02 04 06.40 +19 24 14.6   699 – Lowell Observatory-LONEOS MPS 19761
2000 09 24.10818 02 02 54.61 +19 18 54.8   557 – Ondrejov MPS 19761
2000 09 24.12000 02 02 54.12 +19 18 51.7 19.0 V 557 – Ondrejov MPS 19761
2000 09 24.41078 02 02 41.68 +19 17 57.1   673 – Table Mountain Observatory, Wrightwood MPS 19761
2000 09 24.41552 02 02 41.51 +19 17 56.2   673 – Table Mountain Observatory, Wrightwood MPS 19761
2000 09 24.42145 02 02 41.24 +19 17 55.0   673 – Table Mountain Observatory, Wrightwood MPS 19761
2000 09 26.06528 02 01 27.89 +19 12 09.1   163 – Roeser Observatory, Luxembourg MPS 19761
2000 09 26.06635 02 01 27.85 +19 12 08.6 18.5 R 163 – Roeser Observatory, Luxembourg MPS 19761
2000 09 26.06959 02 01 27.64 +19 12 07.5   163 – Roeser Observatory, Luxembourg MPS 19761
2000 09 26.08184 02 01 26.96 +19 12 03.9   163 – Roeser Observatory, Luxembourg MPS 19761
2000 09 27.00988 02 00 44.06 +19 08 36.4 19.4 V 557 – Ondrejov MPS 19761
2000 09 27.01811 02 00 43.70 +19 08 34.9   557 – Ondrejov MPS 19761
2000 09 27.02605 02 00 43.27 +19 08 32.2   557 – Ondrejov MPS 19761
2000 09 27.03896 02 00 42.64 +19 08 30.3   557 – Ondrejov MPS 19761
2000 09 29.01793 01 59 06.79 +19 00 31.5   557 – Ondrejov MPS 19761
2000 09 29.02367 01 59 06.48 +19 00 29.5   557 – Ondrejov MPS 19761
2000 09 29.02846 01 59 06.19 +19 00 28.6   557 – Ondrejov MPS 19761
2000 10 25.29094 01 33 23.75 +16 16 29.2 18.4   704 – Lincoln Laboratory ETS, New Mexico MPS 21152
2000 10 25.31789 01 33 22.14 +16 16 16.7 18.7   704 – Lincoln Laboratory ETS, New Mexico MPS 21152
2000 10 25.33138 01 33 21.37 +16 16 10.7 19.2   704 – Lincoln Laboratory ETS, New Mexico MPS 21152
2000 10 25.34487 01 33 20.48 +16 16 03.8 18.7   704 – Lincoln Laboratory ETS, New Mexico MPS 21152
2000 11 01.21227 01 26 50.84 +15 23 56.0 18.8   704 – Lincoln Laboratory ETS, New Mexico MPS 21152
2000 11 01.22586 01 26 50.06 +15 23 48.0 18.7   704 – Lincoln Laboratory ETS, New Mexico MPS 21152
2000 11 01.23959 01 26 49.35 +15 23 42.7 18.4   704 – Lincoln Laboratory ETS, New Mexico MPS 21152
2000 11 01.25320 01 26 48.58 +15 23 36.3 18.8   704 – Lincoln Laboratory ETS, New Mexico MPS 21152
2000 11 01.26681 01 26 47.82 +15 23 30.7 18.8   704 – Lincoln Laboratory ETS, New Mexico MPS 21152
2000 11 03.20929 01 25 05.98 +15 08 54.2 19.2   704 – Lincoln Laboratory ETS, New Mexico MPS 21152
2000 11 03.22276 01 25 05.31 +15 08 48.6 19.4   704 – Lincoln Laboratory ETS, New Mexico MPS 21152
2000 11 03.23624 01 25 04.56 +15 08 41.9 19.4   704 – Lincoln Laboratory ETS, New Mexico MPS 21152
2000 11 03.24972 01 25 03.81 +15 08 35.8 19.3   704 – Lincoln Laboratory ETS, New Mexico MPS 21152
2000 11 03.26322 01 25 03.16 +15 08 29.3 19.4   704 – Lincoln Laboratory ETS, New Mexico MPS 21152
2000 11 16.14686 01 15 53.87 +13 38 58.6 18.4 R 699 – Lowell Observatory-LONEOS MPS 25168
2000 11 16.17068 01 15 53.10 +13 38 50.1   699 – Lowell Observatory-LONEOS MPS 25168
2000 11 16.19458 01 15 52.23 +13 38 42.4   699 – Lowell Observatory-LONEOS MPS 25168
2000 11 16.21843 01 15 51.26 +13 38 31.3   699 – Lowell Observatory-LONEOS MPS 25168
2000 11 20.21579 01 13 52.56 +13 14 42.3 18.6   704 – Lincoln Laboratory ETS, New Mexico MPS 22466
2000 11 20.23067 01 13 52.18 +13 14 37.5 19.2   704 – Lincoln Laboratory ETS, New Mexico MPS 22466
2000 11 20.24554 01 13 51.76 +13 14 32.9 18.8   704 – Lincoln Laboratory ETS, New Mexico MPS 22466
2000 11 20.26039 01 13 51.36 +13 14 27.4 19.0   704 – Lincoln Laboratory ETS, New Mexico MPS 22466
2000 11 20.27525 01 13 50.97 +13 14 22.0 19.0   704 – Lincoln Laboratory ETS, New Mexico MPS 22466
2001 12 14.45287 08 42 17.97 +13 49 03.4 19.1   704 – Lincoln Laboratory ETS, New Mexico MPS 43474
2001 12 14.46822 08 42 17.60 +13 49 02.6 19.6   704 – Lincoln Laboratory ETS, New Mexico MPS 43474
2001 12 14.48358 08 42 17.30 +13 48 59.9 19.7   704 – Lincoln Laboratory ETS, New Mexico MPS 43474
2001 12 14.49893 08 42 16.98 +13 48 59.0 19.0   704 – Lincoln Laboratory ETS, New Mexico MPS 43474
2001 12 14.51427 08 42 16.64 +13 48 57.3 19.2   704 – Lincoln Laboratory ETS, New Mexico MPS 43474
2001 12 17.45109 08 41 10.12 +13 44 53.0 19.3   704 – Lincoln Laboratory ETS, New Mexico MPS 43474
2001 12 17.46638 08 41 09.69 +13 44 52.0 19.4   704 – Lincoln Laboratory ETS, New Mexico MPS 43474
2001 12 17.48165 08 41 09.34 +13 44 51.2 19.3   704 – Lincoln Laboratory ETS, New Mexico MPS 43474
2001 12 17.48717 08 41 09.20 +13 44 50.5 19.7   644 – Palomar Mountain/NEAT MPS 43474
2001 12 17.49693 08 41 08.92 +13 44 49.8 19.3   704 – Lincoln Laboratory ETS, New Mexico MPS 43474
2001 12 17.49773 08 41 08.92 +13 44 50.0 19.9   644 – Palomar Mountain/NEAT MPS 43474
2001 12 17.50818 08 41 08.66 +13 44 48.5 20.2   644 – Palomar Mountain/NEAT MPS 43474
2001 12 17.51220 08 41 08.48 +13 44 48.4 19.7   704 – Lincoln Laboratory ETS, New Mexico MPS 43474
2002 01 08.42264 08 25 12.24 +13 44 32.6 19.5   644 – Palomar Mountain/NEAT MPS 49059
2002 01 08.44833 08 25 10.65 +13 44 34.2 19.8   644 – Palomar Mountain/NEAT MPS 49059
2002 01 08.47068 08 25 09.30 +13 44 35.6 20.3   644 – Palomar Mountain/NEAT MPS 49059
2002 01 13.30870 08 20 09.20 +13 51 02.2 19.1   704 – Lincoln Laboratory ETS, New Mexico MPS 49059
2002 01 13.32386 08 20 08.04 +13 51 03.5 20.2   704 – Lincoln Laboratory ETS, New Mexico MPS 49059
2002 01 13.33902 08 20 07.11 +13 51 05.1 19.2   704 – Lincoln Laboratory ETS, New Mexico MPS 49059
2002 01 13.35419 08 20 06.10 +13 51 07.2 19.2   704 – Lincoln Laboratory ETS, New Mexico MPS 49059
2002 01 13.36936 08 20 05.14 +13 51 08.6 19.6   704 – Lincoln Laboratory ETS, New Mexico MPS 49059
2002 01 22.23130 08 10 12.62 +14 07 22.9 18.0   704 – Lincoln Laboratory ETS, New Mexico MPS 49059
2002 01 22.24843 08 10 11.41 +14 07 25.2 18.6   704 – Lincoln Laboratory ETS, New Mexico MPS 49059
2002 01 22.27825 08 10 09.33 +14 07 28.2 18.5   704 – Lincoln Laboratory ETS, New Mexico MPS 49059
2002 02 04.25283 07 55 44.75 +14 37 11.3 18.6 R 699 – Lowell Observatory-LONEOS MPS 49059
2002 02 04.27863 07 55 43.03 +14 37 15.0   699 – Lowell Observatory-LONEOS MPS 49059
2002 02 04.30448 07 55 41.42 +14 37 18.9   699 – Lowell Observatory-LONEOS MPS 49059
2002 02 04.33046 07 55 39.63 +14 37 21.9   699 – Lowell Observatory-LONEOS MPS 49059
2002 02 04.45319 07 55 31.97 +14 37 42.3 20.6   608 – Haleakala-AMOS MPS 49059
2002 02 04.46355 07 55 31.28 +14 37 43.9 20.5   608 – Haleakala-AMOS MPS 49059
2002 02 04.47394 07 55 30.62 +14 37 44.6 19.6   608 – Haleakala-AMOS MPS 49059
2002 02 06.17756 07 53 45.97 +14 41 48.4 18.3   644 – Palomar Mountain/NEAT MPS 49059
2002 02 06.19840 07 53 44.67 +14 41 51.5 18.4   644 – Palomar Mountain/NEAT MPS 49059
2002 02 06.21939 07 53 43.35 +14 41 54.7 18.4   644 – Palomar Mountain/NEAT MPS 49059
2002 02 08.24507 07 51 42.51 +14 46 45.7 18.7   704 – Lincoln Laboratory ETS, New Mexico MPS 49059
2002 02 08.25991 07 51 41.59 +14 46 47.8 19.1   704 – Lincoln Laboratory ETS, New Mexico MPS 49059
2002 02 08.27435 07 51 40.71 +14 46 50.1 19.0   704 – Lincoln Laboratory ETS, New Mexico MPS 49059
2002 02 08.28886 07 51 39.86 +14 46 51.8 19.0   704 – Lincoln Laboratory ETS, New Mexico MPS 49059
2002 02 08.30354 07 51 38.98 +14 46 53.2 18.9   704 – Lincoln Laboratory ETS, New Mexico MPS 49059
2002 03 05.11343 07 35 47.99 +15 37 58.7 19.5   644 – Palomar Mountain/NEAT MPS 51945
2002 03 05.13459 07 35 47.62 +15 38 00.8 19.7   644 – Palomar Mountain/NEAT MPS 51945
